Flag for Norway Weather past 2 weeks in Langesund, Norway

Now
40 °F

Chilly.


Feels Like: 35 °F
Forecast: 41 / 52 °F
Wind: 6 mph from Southwest

Location: Jomfruland Fyr

Current Time: Mar 6, 2015 at 7:42:23 PM

Latest Report: Mar 6, 2015 at 7:00 PM


Visibility: N/A

Pressure: 30.19 "Hg

Humidity: 94%

Dew point: 38 °F

Location of LangesundLocation

Historic Weather in Langesund — Graph

°F

Langesund temperature yesterday

Maximum temperature yesterday: 43 °F (at 12:00 PM)
Minimum temperature yesterday: 33 °F (at 6:00 AM)
Average temperature yesterday: 38 °F

Past Weeks' High & Low Weather Summary

 TemperatureHumidityPressure
High50 °F (Mar 6, 1:00 PM)96% (Feb 25, 11:00 PM)30.34 "Hg (Feb 25, 11:00 PM)
Low30 °F (Mar 4, 6:00 AM)41% (Mar 4, 1:00 PM)28.94 "Hg (Feb 23, 11:00 AM)
Average38 °F84%29.55 "Hg
* Reported Feb 19 6:00 PM — Mar 6 6:00 PM, Langesund, Weather by CustomWeather, © 2015

Note: Actual official high and low records may vary slightly from our data, if they occured in-between our weather recording intervals... More about our weather records

Advertising

Langesund weather history for previous 24 hours

 ConditionsComfort  
Time TempWeatherWind HumidityBarometerVisibility
6:00 PM
Fri, Mar 6
40 °FChilly.8 mph92%30.19 "HgN/A
5:00 PM41 °FQuite cool.8 mph85%30.19 "HgN/A
4:00 PM44 °FQuite cool.6 mph73%30.19 "HgN/A
3:00 PM47 °FCool.5 mph60%30.20 "HgN/A
2:00 PM49 °FCool.8 mph55%30.22 "HgN/A
1:00 PM50 °FCool.6 mph50%30.19 "HgN/A
12:00 PM49 °FCool.6 mph55%30.20 "HgN/A
11:00 AM48 °FCool.1 mph61%30.17 "HgN/A
10:00 AM45 °FCool.6 mph68%30.19 "HgN/A
9:00 AM40 °FQuite cool.5 mph84%30.17 "HgN/A
8:00 AM40 °FChilly.1 mph88%30.16 "HgN/A
7:00 AM37 °FChilly.1 mph90%30.15 "HgN/A
6:00 AM40 °FChilly.6 mph90%30.12 "HgN/A
5:00 AM39 °FChilly.5 mph93%30.11 "HgN/A
4:00 AM39 °FChilly.7 mph95%30.09 "HgN/A
3:00 AM39 °FChilly.7 mph95%30.10 "HgN/A
2:00 AM39 °FChilly.9 mph95%30.11 "HgN/A
1:00 AM39 °FChilly.9 mph96%30.11 "HgN/A
12:00 AM39 °FChilly.8 mph96%30.13 "HgN/A
11:00 PM
Thu, Mar 5
39 °FChilly.10 mph96%30.15 "HgN/A
10:00 PM40 °FChilly.13 mph96%30.16 "HgN/A
9:00 PM39 °FChilly.12 mph95%30.19 "HgN/A
8:00 PM39 °FChilly.10 mph95%30.21 "HgN/A
7:00 PM39 °FChilly.12 mph93%30.23 "HgN/A
Weather by CustomWeather, © 2015

See weather overviewHow to use our weather pages